Weather History for KSUX - May, 2013

Change the Weather History Date:

Tuesday, May 7, 2013

  Actual Average Record
Temperature  
Mean Temperature 56 °F 58 °F  
Max Temperature 73 °F 70 °F 94 °F (2014)
Min Temperature 38 °F 46 °F 30 °F (1954)
Degree Days  
Heating Degree Days 9 8  
Month to date heating degree days 130 63  
Since 1 July heating degree days 6958 6715  
Cooling Degree Days 0 1  
Month to date cooling degree days 0 7  
Year to date cooling degree days 1 18  
Growing Degree Days 5 (Base 50)    
Moisture  
Dew Point 45 °F    
Average Humidity 71    
Maximum Humidity 100    
Minimum Humidity 41    
Precipitation  
Precipitation 0.18 in 0.11 in 1.61 in (1930)
Month to date precipitation 1.32 0.79  
Year to date precipitation 9.37 7.03  
Snow  
Snow 0.00 in 0.00 in 3.00 in (1938)
Month to date snowfall 1.4 0.1  
Since 1 July snowfall 45.1 34.9  
Snow Depth 0.00 in    
Sea Level Pressure  
Sea Level Pressure 30.04 in    
Wind  
Wind Speed 6 mph (SSE)    
Max Wind Speed 17 mph    
Max Gust Speed 21 mph    
Visibility 6 miles    
Events Fog , Rain    
T = Trace of Precipitation, MM = Missing Value Source: NWS Daily Summary

Daily Weather History Graph

Daily Weather History Graph

Search for Another Location

Airport or City:

Trip Planner

Search our weather history database for the weather conditions in past years. The results will help you decide how hot, cold, wet, or windy it might be!

Date:

Astronomy

May. 07, 2013 Rise Set
Actual Time 6:12 AM CDT 8:32 PM CDT
Civil Twilight 5:41 AM CDT 9:03 PM CDT
Nautical Twilight 5:02 AM CDT 9:42 PM CDT
Astronomical Twilight 4:19 AM CDT 10:25 PM CDT
Moon 4:50 AM CDT (5/7) 6:31 PM CDT (5/7)
Length of Visible Light 15h 22m
Length of Day
14h 19m
Waning Crescent, 5% of the Moon is Illuminated
May 7
Waning Crescent
May 9
New
May 17
First Quarter
May 24
Full
May 31
Last Quarter

Hourly Weather History & Observations

Time (CDT) Temp. Windchill Dew Point Humidity Pressure Visibility Wind Dir Wind Speed Gust Speed Precip Events Conditions
12:52 AM 46.0 °F - 42.1 °F 86% 30.08 in 10.0 mi Calm Calm - N/A   Clear
1:52 AM 46.0 °F - 43.0 °F 89% 30.08 in 10.0 mi Calm Calm - N/A   Clear
2:52 AM 44.1 °F - 42.1 °F 93% 30.07 in 8.0 mi Calm Calm - N/A   Clear
3:52 AM 39.9 °F 37.8 °F 39.0 °F 97% 30.07 in 2.5 mi WNW 3.5 mph - N/A   Clear
4:04 AM 41.0 °F - 41.0 °F 100% 30.06 in 4.0 mi Calm Calm - N/A   Clear
4:11 AM 41.0 °F - 41.0 °F 100% 30.05 in 1.8 mi Calm Calm - N/A   Clear
4:20 AM 42.8 °F - 41.0 °F 93% 30.05 in 4.0 mi Calm Calm - N/A   Clear
4:46 AM 39.2 °F - 37.4 °F 93% 30.05 in 1.5 mi Calm Calm - N/A   Clear
4:52 AM 39.0 °F - 37.9 °F 96% 30.06 in 1.0 mi Calm Calm - N/A   Clear
5:01 AM 41.0 °F - 39.2 °F 93% 30.05 in 3.0 mi Calm Calm - N/A   Clear
5:52 AM 39.9 °F - 39.0 °F 97% 30.06 in 4.0 mi Calm Calm - N/A   Clear
6:21 AM 39.2 °F - 37.4 °F 93% 30.06 in 1.5 mi Calm Calm - N/A   Clear
6:33 AM 39.2 °F 37.0 °F 39.2 °F 100% 30.05 in 3.0 mi ESE 3.5 mph - N/A   Clear
6:39 AM 37.4 °F 34.9 °F 37.4 °F 100% 30.06 in 1.5 mi ESE 3.5 mph - N/A   Scattered Clouds
6:41 AM 37.4 °F 34.9 °F 37.4 °F 100% 30.06 in 0.5 mi ESE 3.5 mph - N/A Fog Fog
6:49 AM 39.2 °F 37.0 °F 37.4 °F 93% 30.06 in 0.2 mi SE 3.5 mph - N/A Fog Fog
6:52 AM 39.0 °F - 39.0 °F 100% 30.08 in 0.2 mi Calm Calm - N/A Fog Fog
7:15 AM 41.0 °F - 41.0 °F 100% 30.07 in 0.2 mi Calm Calm - N/A Fog Fog
7:25 AM 42.8 °F 41.1 °F 42.8 °F 100% 30.07 in 0.2 mi East 3.5 mph - N/A Fog Fog
7:47 AM 44.6 °F 42.2 °F 44.6 °F 100% 30.07 in 0.8 mi ESE 4.6 mph - N/A   Mist
7:52 AM 45.0 °F 41.8 °F 45.0 °F 100% 30.08 in 2.0 mi ESE 5.8 mph - N/A   Mostly Cloudy
8:09 AM 46.4 °F 42.9 °F 46.4 °F 100% 30.07 in 2.0 mi ESE 6.9 mph - N/A   Scattered Clouds
8:16 AM 46.4 °F 43.5 °F 46.4 °F 100% 30.08 in 4.0 mi ESE 5.8 mph - N/A   Partly Cloudy
8:52 AM 51.1 °F - 48.9 °F 92% 30.09 in 8.0 mi ESE 6.9 mph - N/A   Clear
9:52 AM 60.1 °F - 52.0 °F 75% 30.08 in 9.0 mi SE 8.1 mph - N/A   Clear
10:52 AM 64.0 °F - 52.0 °F 65% 30.07 in 10.0 mi ESE 8.1 mph - N/A   Clear
11:52 AM 68.0 °F - 51.1 °F 55% 30.05 in 10.0 mi SSE 12.7 mph 20.7 mph N/A   Clear
12:52 PM 70.0 °F - 51.1 °F 51% 30.04 in 10.0 mi SSE 5.8 mph - N/A   Partly Cloudy
1:52 PM 72.0 °F - 48.9 °F 44% 30.01 in 10.0 mi South 11.5 mph 18.4 mph N/A   Partly Cloudy
2:52 PM 72.0 °F - 46.9 °F 41% 30.01 in 10.0 mi SSW 11.5 mph - N/A   Partly Cloudy
3:52 PM 72.0 °F - 46.0 °F 40% 30.00 in 10.0 mi SSW 10.4 mph - N/A   Partly Cloudy
4:52 PM 71.1 °F - 46.0 °F 41% 29.99 in 10.0 mi South 6.9 mph - 0.00 in Rain Light Rain
5:52 PM 71.1 °F - 45.0 °F 39% 29.98 in 10.0 mi WNW 3.5 mph - 0.00 in   Partly Cloudy
6:52 PM 69.1 °F - 46.9 °F 45% 29.96 in 10.0 mi NW 8.1 mph - 0.00 in   Scattered Clouds
7:52 PM 66.0 °F - 48.0 °F 52% 29.97 in 10.0 mi West 3.5 mph - 0.00 in Rain Light Rain
8:52 PM 60.1 °F - 53.1 °F 78% 29.97 in 10.0 mi Calm Calm - 0.00 in   Mostly Cloudy
9:52 PM 59.0 °F - 54.0 °F 83% 29.97 in 10.0 mi SE 4.6 mph - N/A   Mostly Cloudy
10:52 PM 57.9 °F - 54.0 °F 87% 29.99 in 8.0 mi SW 8.1 mph - 0.00 in Rain Light Rain
11:52 PM 57.0 °F - 54.0 °F 89% 29.97 in 8.0 mi South 9.2 mph - 0.14 in Rain Light Rain